| time (UTC) | temp F | wind direction | speed knots | gust knots | rain 1hr in | rain 24hr in | rain mn in | humidity % | barometer mb |
| 20260507092537 | 63 | 42 | 0.0 | 0.0 | 0.00 | 0.00 | 0.00 | 100 | 1017.6 |
| 20260507092037 | 64 | 42 | 0.0 | 0.0 | 0.00 | 0.00 | 0.00 | 100 | 1017.7 |
| 20260507091613 | 64 | 42 | 0.0 | 0.0 | 0.00 | 0.00 | 0.00 | 100 | 1017.6 |
| 20260507091537 | 64 | 42 | 0.0 | 0.0 | 0.00 | 0.00 | 0.00 | 100 | 1017.6 |
| 20260507091136 | 64 | 42 | 0.0 | 0.0 | 0.00 | 0.00 | 0.00 | 100 | 1017.6 |
| 20260507091037 | 64 | 42 | 0.0 | 0.0 | 0.00 | 0.00 | 0.00 | 100 | 1017.6 |
| 20260507090537 | 64 | 42 | 0.0 | 0.0 | 0.00 | 0.00 | 0.00 | 100 | 1017.5 |
| 20260507090037 | 64 | 42 | 0.0 | 0.0 | 0.00 | 0.00 | 0.00 | 100 | 1017.5 |
| 20260507085537 | 64 | 42 | 0.0 | 0.0 | 0.00 | 0.00 | 0.00 | 100 | 1017.4 |
| 20260507085037 | 65 | 42 | 0.0 | 0.0 | 0.00 | 0.00 | 0.00 | 100 | 1017.3 |
| 20260507084537 | 65 | 42 | 0.0 | 0.0 | 0.00 | 0.00 | 0.00 | 100 | 1017.2 |
| 20260507084329 | 66 | 42 | 0.0 | 0.0 | 0.00 | 0.00 | 0.00 | 100 | 1017.2 |
| 20260507084154 | 65 | 42 | 0.0 | 0.0 | 0.00 | 0.00 | 0.00 | 100 | 1017.1 |
| 20260507084037 | 65 | 42 | 0.0 | 0.0 | 0.00 | 0.00 | 0.00 | 100 | 1017.1 |
| 20260507083537 | 65 | 42 | 0.0 | 0.0 | 0.00 | 0.00 | 0.00 | 100 | 1017.1 |
| 20260507083037 | 64 | 42 | 0.0 | 0.0 | 0.00 | 0.00 | 0.00 | 100 | 1017.1 |
| 20260507082537 | 65 | 42 | 0.0 | 0.0 | 0.00 | 0.00 | 0.00 | 100 | 1017.0 |
| 20260507082132 | 65 | 42 | 0.0 | 0.0 | 0.00 | 0.00 | 0.00 | 100 | 1017.0 |
| 20260507082037 | 65 | 42 | 0.0 | 0.0 | 0.00 | 0.00 | 0.00 | 100 | 1017.0 |
| 20260507081537 | 65 | 42 | 0.0 | 0.0 | 0.00 | 0.00 | 0.00 | 100 | 1017.1 |
| 20260507081037 | 66 | 42 | 0.0 | 0.0 | 0.00 | 0.00 | 0.00 | 100 | 1017.3 |
| 20260507080537 | 66 | 42 | 0.0 | 0.0 | 0.00 | 0.00 | 0.00 | 100 | 1017.2 |
| 20260507080455 | 67 | 42 | 0.0 | 0.0 | 0.00 | 0.00 | 0.00 | 100 | 1017.2 |
| 20260507080037 | 67 | 42 | 0.0 | 0.0 | 0.00 | 0.00 | 0.00 | 100 | 1017.2 |
| 20260507075537 | 66 | 42 | 0.0 | 0.0 | 0.00 | 0.00 | 0.00 | 100 | 1017.2 |
| 20260507075037 | 66 | 42 | 0.0 | 0.0 | 0.00 | 0.00 | 0.00 | 100 | 1017.1 |
| 20260507074537 | 65 | 42 | 0.0 | 0.0 | 0.00 | 0.00 | 0.00 | 100 | 1017.0 |
| 20260507074037 | 65 | 42 | 0.0 | 0.0 | 0.00 | 0.00 | 0.00 | 100 | 1017.0 |
| 20260507073537 | 65 | 42 | 0.0 | 0.0 | 0.00 | 0.00 | 0.00 | 100 | 1017.0 |
| 20260507073037 | 65 | 42 | 0.0 | 0.0 | 0.00 | 0.00 | 0.00 | 100 | 1016.9 |
| 20260507072615 | 65 | 42 | 0.0 | 0.0 | 0.00 | 0.00 | 0.00 | 100 | 1017.0 |
| 20260507072537 | 65 | 42 | 0.0 | 0.0 | 0.00 | 0.00 | 0.00 | 100 | 1017.0 |
| 20260507072037 | 65 | 42 | 0.0 | 0.9 | 0.00 | 0.00 | 0.00 | 100 | 1017.0 |
| 20260507071537 | 65 | 46 | 0.0 | 0.0 | 0.00 | 0.00 | 0.00 | 100 | 1017.0 |
| 20260507071037 | 65 | 46 | 0.0 | 0.0 | 0.00 | 0.00 | 0.00 | 100 | 1017.1 |
| 20260507070623 | 65 | 46 | 0.0 | 0.0 | 0.00 | 0.00 | 0.00 | 100 | 1017.2 |
| 20260507070537 | 65 | 46 | 0.0 | 0.0 | 0.00 | 0.00 | 0.00 | 100 | 1017.2 |
| 20260507070037 | 65 | 46 | 0.0 | 0.0 | 0.00 | 0.00 | 0.00 | 100 | 1017.3 |
| 20260507065537 | 66 | 46 | 0.0 | 0.0 | 0.00 | 0.00 | 0.00 | 100 | 1017.4 |
| 20260507065037 | 66 | 46 | 0.0 | 0.0 | 0.00 | 0.00 | 0.00 | 100 | 1017.4 |
| 20260507064537 | 66 | 46 | 0.0 | 0.0 | 0.00 | 0.00 | 0.00 | 100 | 1017.6 |
| 20260507064037 | 66 | 46 | 0.0 | 0.0 | 0.00 | 0.00 | 0.00 | 100 | 1017.6 |
| 20260507063826 | 66 | 46 | 0.0 | 0.0 | 0.00 | 0.00 | 0.00 | 100 | 1018.1 |
| 20260507063537 | 66 | 46 | 0.0 | 0.0 | 0.00 | 0.00 | 0.00 | 100 | 1017.8 |
| 20260507063038 | 66 | 46 | 0.0 | 0.0 | 0.00 | 0.00 | 0.00 | 100 | 1018.1 |
| 20260507062537 | 66 | 46 | 0.0 | 0.0 | 0.00 | 0.00 | 0.00 | 100 | 1018.1 |
| 20260507062038 | 66 | 46 | 0.0 | 0.0 | 0.00 | 0.00 | 0.00 | 100 | 1018.0 |
| 20260507061538 | 66 | 46 | 0.0 | 0.0 | 0.00 | 0.00 | 0.00 | 100 | 1018.1 |
| 20260507061150 | 66 | 46 | 0.0 | 0.0 | 0.00 | 0.00 | 0.00 | 100 | 1018.3 |
| 20260507061038 | 66 | 46 | 0.0 | 0.0 | 0.00 | 0.00 | 0.00 | 100 | 1018.3 |
| 20260507060538 | 66 | 46 | 0.0 | 0.0 | 0.00 | 0.00 | 0.00 | 100 | 1018.3 |
| 20260507060038 | 66 | 46 | 0.0 | 0.0 | 0.00 | 0.00 | 0.00 | 100 | 1018.3 |
| 20260507055634 | 67 | 46 | 0.0 | 0.0 | 0.00 | 0.00 | 0.00 | 100 | 1018.5 |
| 20260507055538 | 67 | 46 | 0.0 | 0.0 | 0.00 | 0.00 | 0.00 | 100 | 1018.5 |
| 20260507055118 | 67 | 46 | 0.0 | 0.0 | 0.00 | 0.00 | 0.00 | 100 | 1018.4 |
| 20260507055038 | 67 | 46 | 0.0 | 0.0 | 0.00 | 0.00 | 0.00 | 100 | 1018.4 |
| 20260507055026 | 67 | 46 | 0.0 | 0.0 | 0.00 | 0.00 | 0.00 | 100 | 1018.6 |
| 20260507054613 | 66 | 46 | 0.0 | 0.0 | 0.00 | 0.00 | 0.00 | 100 | 1018.4 |
| 20260507054538 | 66 | 46 | 0.0 | 0.0 | 0.00 | 0.00 | 0.00 | 100 | 1018.4 |
| 20260507054226 | 67 | 46 | 0.0 | 0.0 | 0.00 | 0.00 | 0.00 | 100 | 1018.5 |
| 20260507054038 | 67 | 46 | 0.0 | 0.0 | 0.00 | 0.00 | 0.00 | 100 | 1018.5 |
| 20260507053538 | 67 | 46 | 0.0 | 0.0 | 0.00 | 0.00 | 0.00 | 100 | 1018.6 |
| 20260507053425 | 67 | 46 | 0.0 | 0.0 | 0.00 | 0.00 | 0.00 | 100 | 1018.9 |
| 20260507053038 | 67 | 46 | 0.0 | 0.0 | 0.00 | 0.00 | 0.00 | 100 | 1018.8 |
| 20260507052538 | 67 | 46 | 0.0 | 0.0 | 0.00 | 0.00 | 0.00 | 100 | 1018.8 |
| 20260507052038 | 67 | 46 | 0.0 | 0.0 | 0.00 | 0.00 | 0.00 | 100 | 1018.9 |
| 20260507051655 | 67 | 46 | 0.0 | 0.0 | 0.00 | 0.00 | 0.00 | 100 | 1019.0 |
| 20260507051538 | 68 | 46 | 0.0 | 0.0 | 0.00 | 0.00 | 0.00 | 100 | 1019.0 |
| 20260507051038 | 67 | 46 | 0.0 | 0.0 | 0.00 | 0.00 | 0.00 | 100 | 1019.0 |
| 20260507050538 | 68 | 46 | 0.0 | 0.0 | 0.00 | 0.00 | 0.00 | 100 | 1019.2 |
| 20260507050038 | 68 | 46 | 0.0 | 0.0 | 0.00 | 0.00 | 0.00 | 100 | 1019.2 |
| 20260507045538 | 68 | 46 | 0.0 | 0.0 | 0.00 | 0.00 | 0.00 | 100 | 1019.1 |
| 20260507045038 | 68 | 46 | 0.0 | 0.0 | 0.00 | 0.00 | 0.00 | 100 | 1019.1 |
| 20260507044540 | 69 | 97 | 0.0 | 0.0 | 0.00 | 0.00 | 0.00 | 100 | 1019.1 |
| 20260507044538 | 68 | 46 | 0.0 | 0.0 | 0.00 | 0.00 | 0.00 | 100 | 1019.0 |
| 20260507044038 | 69 | 46 | 0.0 | 0.0 | 0.00 | 0.00 | 0.00 | 100 | 1019.1 |
| 20260507043602 | 69 | 97 | 0.0 | 2.6 | 0.00 | 0.00 | 0.00 | 100 | 1019.1 |
| 20260507043538 | 69 | 97 | 0.0 | 0.0 | 0.00 | 0.00 | 0.00 | 100 | 1019.1 |
| 20260507043038 | 69 | 97 | 0.0 | 2.6 | 0.00 | 0.00 | 0.00 | 100 | 1019.1 |
| 20260507042538 | 69 | 45 | 0.0 | 3.5 | 0.00 | 0.00 | 0.00 | 100 | 1019.2 |
| 20260507042038 | 68 | 91 | 3.5 | 3.5 | 0.00 | 0.00 | 0.00 | 100 | 1019.1 |
| 20260507041538 | 68 | 11 | 0.0 | 0.0 | 0.00 | 0.00 | 0.00 | 100 | 1019.1 |
| 20260507041038 | 68 | 11 | 0.0 | 0.0 | 0.00 | 0.00 | 0.00 | 100 | 1019.0 |
| 20260507040538 | 68 | 11 | 0.0 | 0.0 | 0.00 | 0.00 | 0.00 | 100 | 1019.1 |
| 20260507040038 | 68 | 11 | 0.0 | 0.0 | 0.00 | 0.00 | 0.00 | 100 | 1019.0 |
| 20260507035538 | 68 | 11 | 0.0 | 0.0 | 0.00 | 0.00 | 0.00 | 100 | 1018.9 |
| 20260507035038 | 68 | 11 | 0.0 | 0.0 | 0.00 | 0.00 | 0.00 | 100 | 1018.9 |
| 20260507034538 | 69 | 11 | 0.0 | 0.0 | 0.00 | 0.00 | 0.00 | 100 | 1018.8 |
| 20260507034038 | 68 | 11 | 0.0 | 0.0 | 0.00 | 0.00 | 0.00 | 100 | 1018.7 |
| 20260507033538 | 68 | 11 | 0.0 | 0.0 | 0.00 | 0.00 | 0.00 | 100 | 1018.8 |
| 20260507033038 | 68 | 11 | 0.0 | 0.0 | 0.00 | 0.00 | 0.00 | 100 | 1018.8 |
| 20260507032611 | 69 | 11 | 0.0 | 0.0 | 0.00 | 0.00 | 0.00 | 100 | 1018.7 |
| 20260507032538 | 69 | 11 | 0.0 | 0.0 | 0.00 | 0.00 | 0.00 | 100 | 1018.7 |
| 20260507032038 | 69 | 11 | 0.0 | 0.0 | 0.00 | 0.00 | 0.00 | 100 | 1018.7 |
| 20260507031538 | 69 | 11 | 0.0 | 0.0 | 0.00 | 0.00 | 0.00 | 100 | 1018.6 |
| 20260507031132 | 69 | 11 | 0.0 | 0.0 | 0.00 | 0.00 | 0.00 | 100 | 1018.7 |
| 20260507031038 | 69 | 11 | 0.0 | 0.0 | 0.00 | 0.00 | 0.00 | 100 | 1018.7 |
| 20260507030538 | 69 | 11 | 0.0 | 0.0 | 0.00 | 0.00 | 0.00 | 100 | 1018.8 |
| 20260507030038 | 70 | 11 | 0.0 | 0.0 | 0.00 | 0.00 | 0.00 | 100 | 1018.8 |
| 20260507025538 | 70 | 11 | 0.0 | 0.0 | 0.00 | 0.00 | 0.00 | 100 | 1018.8 |
| 20260507025038 | 70 | 11 | 0.0 | 0.0 | 0.00 | 0.00 | 0.00 | 100 | 1018.7 |
| 20260507024612 | 70 | 11 | 0.0 | 0.0 | 0.00 | 0.00 | 0.00 | 100 | 1018.7 |
| 20260507024538 | 70 | 11 | 0.0 | 0.0 | 0.00 | 0.00 | 0.00 | 100 | 1018.7 |
| 20260507024038 | 70 | 11 | 0.0 | 0.0 | 0.00 | 0.00 | 0.00 | 100 | 1018.7 |
| 20260507023539 | 70 | 11 | 0.0 | 0.0 | 0.00 | 0.00 | 0.00 | 100 | 1018.7 |
| 20260507023039 | 70 | 11 | 0.0 | 0.0 | 0.00 | 0.00 | 0.00 | 100 | 1018.8 |
| 20260507022539 | 70 | 11 | 0.0 | 0.0 | 0.00 | 0.00 | 0.00 | 100 | 1018.8 |
| 20260507022137 | 71 | 11 | 0.0 | 0.0 | 0.00 | 0.00 | 0.00 | 100 | 1018.8 |
| 20260507022039 | 71 | 11 | 0.0 | 0.0 | 0.00 | 0.00 | 0.00 | 100 | 1018.8 |
| 20260507021539 | 71 | 11 | 0.0 | 0.0 | 0.00 | 0.00 | 0.00 | 100 | 1018.8 |
| 20260507021039 | 71 | 11 | 0.0 | 0.0 | 0.00 | 0.00 | 0.00 | 100 | 1018.8 |
| 20260507020715 | 72 | 11 | 0.0 | 0.0 | 0.00 | 0.00 | 0.00 | 100 | 1018.8 |
| 20260507020539 | 71 | 11 | 0.0 | 0.0 | 0.00 | 0.00 | 0.00 | 100 | 1018.8 |
| 20260507020039 | 72 | 11 | 0.0 | 0.0 | 0.00 | 0.00 | 0.00 | 100 | 1018.8 |
| 20260507015539 | 72 | 11 | 0.0 | 0.0 | 0.00 | 0.00 | 0.00 | 100 | 1018.8 |
| 20260507015039 | 72 | 11 | 0.0 | 0.0 | 0.00 | 0.00 | 0.00 | 100 | 1018.8 |
| 20260507014539 | 72 | 11 | 0.0 | 0.0 | 0.00 | 0.00 | 0.00 | 100 | 1018.8 |
| 20260507014039 | 72 | 11 | 0.0 | 0.0 | 0.00 | 0.00 | 0.00 | 100 | 1018.8 |
| 20260507013612 | 73 | 11 | 0.0 | 0.0 | 0.00 | 0.00 | 0.00 | 100 | 1018.7 |
| 20260507013539 | 73 | 11 | 0.0 | 0.0 | 0.00 | 0.00 | 0.00 | 100 | 1018.7 |
| 20260507013039 | 74 | 11 | 0.0 | 0.0 | 0.00 | 0.00 | 0.00 | 100 | 1018.7 |
| 20260507012539 | 74 | 11 | 0.0 | 0.0 | 0.00 | 0.00 | 0.00 | 100 | 1018.6 |
| 20260507012039 | 75 | 11 | 0.0 | 0.0 | 0.00 | 0.00 | 0.00 | 100 | 1018.6 |
| 20260507011539 | 75 | 11 | 0.0 | 1.7 | 0.00 | 0.00 | 0.00 | 100 | 1018.6 |
| 20260507011039 | 75 | 341 | 1.7 | 3.5 | 0.00 | 0.00 | 0.00 | 100 | 1018.6 |
| 20260507010539 | 75 | 288 | 1.7 | 1.7 | 0.00 | 0.00 | 0.00 | 100 | 1018.6 |
| 20260507010039 | 75 | 261 | 0.0 | 0.0 | 0.00 | 0.00 | 0.00 | 100 | 1018.5 |
| 20260507005539 | 76 | 261 | 0.0 | 0.0 | 0.00 | 0.00 | 0.00 | 100 | 1018.4 |
| 20260507005039 | 76 | 261 | 0.0 | 0.0 | 0.00 | 0.00 | 0.00 | 100 | 1018.5 |
| 20260507004539 | 77 | 261 | 0.0 | 0.0 | 0.00 | 0.00 | 0.00 | 100 | 1018.4 |
| 20260507004039 | 77 | 261 | 0.0 | 0.0 | 0.00 | 0.00 | 0.00 | 100 | 1018.4 |
| 20260507003539 | 78 | 261 | 0.0 | 2.6 | 0.00 | 0.00 | 0.00 | 100 | 1018.3 |
| 20260507003039 | 78 | 241 | 0.0 | 3.5 | 0.00 | 0.00 | 0.00 | 100 | 1018.4 |
| 20260507002539 | 79 | 288 | 0.0 | 2.6 | 0.00 | 0.00 | 0.00 | 100 | 1018.4 |
| 20260507002039 | 79 | 219 | 0.0 | 3.5 | 0.00 | 0.00 | 0.00 | 100 | 1018.4 |
| 20260507001539 | 80 | 281 | 0.0 | 2.6 | 0.00 | 0.00 | 0.00 | 100 | 1018.4 |
| 20260507001039 | 80 | 317 | 1.7 | 3.5 | 0.00 | 0.00 | 0.00 | 100 | 1018.3 |
| 20260507000539 | 80 | 306 | 1.7 | 3.5 | 0.00 | 0.00 | 0.00 | 100 | 1018.3 |
| 20260507000039 | 80 | 323 | 2.6 | 4.3 | 0.00 | 0.00 | 0.00 | 100 | 1018.2 |
| 20260506235539 | 80 | 275 | 0.9 | 4.3 | 0.00 | 0.00 | 0.00 | 100 | 1018.1 |
| 20260506235039 | 81 | 265 | 1.7 | 5.2 | 0.00 | 0.00 | 0.00 | 100 | 1018.1 |
| 20260506234539 | 81 | 264 | 1.7 | 5.2 | 0.00 | 0.00 | 0.00 | 100 | 1018.2 |
| 20260506234210 | 81 | 264 | 4.3 | 7.0 | 0.00 | 0.00 | 0.00 | 100 | 1018.2 |
| 20260506234039 | 81 | 264 | 4.3 | 7.0 | 0.00 | 0.00 | 0.00 | 100 | 1018.2 |
| 20260506233539 | 82 | 258 | 5.2 | 6.1 | 0.00 | 0.00 | 0.00 | 100 | 1018.2 |
| 20260506233039 | 82 | 268 | 5.2 | 7.0 | 0.00 | 0.00 | 0.00 | 100 | 1018.2 |
| 20260506232539 | 82 | 282 | 2.6 | 6.1 | 0.00 | 0.00 | 0.00 | 100 | 1018.2 |
| 20260506232039 | 82 | 264 | 1.7 | 8.7 | 0.00 | 0.00 | 0.00 | 100 | 1018.2 |
| 20260506231851 | 82 | 216 | 7.0 | 7.8 | 0.00 | 0.00 | 0.00 | 100 | 1018.1 |
| 20260506231539 | 82 | 216 | 7.0 | 7.8 | 0.00 | 0.00 | 0.00 | 100 | 1018.1 |
| 20260506231039 | 83 | 246 | 5.2 | 10.4 | 0.00 | 0.00 | 0.00 | 100 | 1018.1 |
| 20260506230819 | 83 | 241 | 5.2 | 9.6 | 0.00 | 0.00 | 0.00 | 100 | 1018.1 |
| 20260506230539 | 83 | 260 | 7.0 | 9.6 | 0.00 | 0.00 | 0.00 | 100 | 1018.1 |
| 20260506230039 | 83 | 247 | 5.2 | 9.6 | 0.00 | 0.00 | 0.00 | 100 | 1018.0 |
| 20260506225539 | 83 | 241 | 5.2 | 9.6 | 0.00 | 0.00 | 0.00 | 100 | 1018.1 |
| 20260506225039 | 84 | 237 | 4.3 | 11.3 | 0.00 | 0.00 | 0.00 | 100 | 1018.0 |
| 20260506224539 | 84 | 302 | 6.1 | 10.4 | 0.00 | 0.00 | 0.00 | 100 | 1018.0 |
| 20260506224039 | 84 | 241 | 4.3 | 12.2 | 0.00 | 0.00 | 0.00 | 100 | 1018.0 |
| 20260506223539 | 85 | 247 | 5.2 | 9.6 | 0.00 | 0.00 | 0.00 | 100 | 1018.0 |
| 20260506223040 | 85 | 254 | 5.2 | 8.7 | 0.00 | 0.00 | 0.00 | 100 | 1017.9 |
| 20260506222540 | 85 | 240 | 7.8 | 9.6 | 0.00 | 0.00 | 0.00 | 100 | 1017.9 |
| 20260506222040 | 85 | 258 | 8.7 | 10.4 | 0.00 | 0.00 | 0.00 | 100 | 1017.9 |
| 20260506221540 | 86 | 247 | 6.1 | 7.8 | 0.00 | 0.00 | 0.00 | 100 | 1017.9 |
| 20260506221040 | 87 | 272 | 7.0 | 9.6 | 0.00 | 0.00 | 0.00 | 100 | 1017.8 |
| 20260506220540 | 87 | 244 | 5.2 | 7.8 | 0.00 | 0.00 | 0.00 | 100 | 1017.8 |
| 20260506220040 | 87 | 278 | 6.1 | 10.4 | 0.00 | 0.00 | 0.00 | 100 | 1017.7 |
| 20260506215540 | 86 | 220 | 5.2 | 10.4 | 0.00 | 0.00 | 0.00 | 100 | 1017.8 |
| 20260506215040 | 87 | 243 | 6.1 | 10.4 | 0.00 | 0.00 | 0.00 | 100 | 1017.8 |
| 20260506214540 | 88 | 262 | 6.1 | 9.6 | 0.00 | 0.00 | 0.00 | 100 | 1017.8 |
| 20260506214040 | 88 | 277 | 3.5 | 9.6 | 0.00 | 0.00 | 0.00 | 100 | 1017.7 |
| 20260506213540 | 89 | 278 | 2.6 | 10.4 | 0.00 | 0.00 | 0.00 | 100 | 1017.7 |
| 20260506213040 | 89 | 248 | 5.2 | 9.6 | 0.00 | 0.00 | 0.00 | 100 | 1017.7 |
| 20260506212540 | 89 | 260 | 5.2 | 8.7 | 0.00 | 0.00 | 0.00 | 100 | 1017.7 |
| 20260506212040 | 90 | 275 | 6.1 | 9.6 | 0.00 | 0.00 | 0.00 | 100 | 1017.6 |
| 20260506211540 | 90 | 255 | 4.3 | 7.8 | 0.00 | 0.00 | 0.00 | 100 | 1017.7 |
| 20260506211040 | 91 | 305 | 1.7 | 7.0 | 0.00 | 0.00 | 0.00 | 100 | 1017.7 |
| 20260506210540 | 91 | 322 | 3.5 | 7.0 | 0.00 | 0.00 | 0.00 | 100 | 1017.7 |
| 20260506210040 | 91 | 277 | 2.6 | 7.0 | 0.00 | 0.00 | 0.00 | 100 | 1017.6 |
| 20260506205540 | 90 | 246 | 4.3 | 10.4 | 0.00 | 0.00 | 0.00 | 100 | 1017.6 |
| 20260506205233 | 89 | 213 | 5.2 | 9.6 | 0.00 | 0.00 | 0.00 | 100 | 1017.6 |
| 20260506205040 | 89 | 270 | 7.0 | 9.6 | 0.00 | 0.00 | 0.00 | 100 | 1017.6 |
| 20260506204540 | 89 | 213 | 5.2 | 9.6 | 0.00 | 0.00 | 0.00 | 100 | 1017.6 |
| 20260506204040 | 90 | 236 | 5.2 | 9.6 | 0.00 | 0.00 | 0.00 | 100 | 1017.5 |
| 20260506203540 | 90 | 209 | 6.1 | 8.7 | 0.00 | 0.00 | 0.00 | 100 | 1017.5 |
| 20260506203040 | 90 | 239 | 6.1 | 13.0 | 0.00 | 0.00 | 0.00 | 100 | 1017.6 |
| 20260506202540 | 91 | 233 | 7.8 | 12.2 | 0.00 | 0.00 | 0.00 | 100 | 1017.6 |
| 20260506202040 | 91 | 244 | 8.7 | 13.9 | 0.00 | 0.00 | 0.00 | 100 | 1017.7 |
| 20260506201711 | 91 | 240 | 7.8 | 13.0 | 0.00 | 0.00 | 0.00 | 100 | 1017.7 |
| 20260506201540 | 91 | 240 | 7.8 | 13.0 | 0.00 | 0.00 | 0.00 | 100 | 1017.7 |
| 20260506201040 | 92 | 267 | 3.5 | 14.8 | 0.00 | 0.00 | 0.00 | 100 | 1017.6 |
| 20260506200540 | 92 | 241 | 6.1 | 9.6 | 0.00 | 0.00 | 0.00 | 100 | 1017.7 |
| 20260506200040 | 92 | 258 | 9.6 | 10.4 | 0.00 | 0.00 | 0.00 | 100 | 1017.6 |
| 20260506195540 | 93 | 264 | 3.5 | 9.6 | 0.00 | 0.00 | 0.00 | 100 | 1017.6 |
| 20260506195145 | 93 | 326 | 0.9 | 9.6 | 0.00 | 0.00 | 0.00 | 100 | 1017.7 |
| 20260506195040 | 93 | 326 | 0.9 | 9.6 | 0.00 | 0.00 | 0.00 | 100 | 1017.7 |
| 20260506194841 | 93 | 253 | 7.0 | 7.8 | 0.00 | 0.00 | 0.00 | 100 | 1017.7 |
| 20260506194540 | 93 | 253 | 7.0 | 7.8 | 0.00 | 0.00 | 0.00 | 100 | 1017.7 |
| 20260506194040 | 93 | 84 | 1.7 | 4.3 | 0.00 | 0.00 | 0.00 | 100 | 1017.8 |
| 20260506193540 | 92 | 91 | 2.6 | 3.5 | 0.00 | 0.00 | 0.00 | 100 | 1017.9 |
| 20260506193406 | 92 | 144 | 3.5 | 7.8 | 0.00 | 0.00 | 0.00 | 100 | 1018.0 |
| 20260506193040 | 92 | 144 | 3.5 | 7.8 | 0.00 | 0.00 | 0.00 | 100 | 1018.0 |
| 20260506192933 | 94 | 130 | 3.5 | 6.1 | 0.00 | 0.00 | 0.00 | 100 | 1017.9 |
| 20260506192540 | 94 | 130 | 3.5 | 6.1 | 0.00 | 0.00 | 0.00 | 100 | 1017.9 |
| 20260506192040 | 94 | 246 | 1.7 | 6.1 | 0.00 | 0.00 | 0.00 | 100 | 1017.9 |
| 20260506191719 | 92 | 278 | 0.9 | 6.1 | 0.00 | 0.00 | 0.00 | 100 | 1018.0 |
| 20260506191540 | 94 | 244 | 0.0 | 8.7 | 0.00 | 0.00 | 0.00 | 100 | 1017.9 |
| 20260506191040 | 92 | 333 | 1.7 | 6.1 | 0.00 | 0.00 | 0.00 | 100 | 1018.0 |
| 20260506190540 | 92 | 278 | 0.9 | 6.1 | 0.00 | 0.00 | 0.00 | 100 | 1018.0 |
| 20260506190040 | 91 | 306 | 0.9 | 6.1 | 0.00 | 0.00 | 0.00 | 100 | 1018.1 |
| 20260506185625 | 92 | 222 | 1.7 | 6.1 | 0.00 | 0.00 | 0.00 | 100 | 1018.2 |
| 20260506185540 | 92 | 222 | 1.7 | 6.1 | 0.00 | 0.00 | 0.00 | 100 | 1018.2 |
| 20260506185427 | 92 | 158 | 5.2 | 6.1 | 0.00 | 0.00 | 0.00 | 100 | 1018.3 |
| 20260506185040 | 92 | 158 | 5.2 | 6.1 | 0.00 | 0.00 | 0.00 | 100 | 1018.3 |
| 20260506184540 | 92 | 132 | 5.2 | 7.8 | 0.00 | 0.00 | 0.00 | 100 | 1018.5 |
| 20260506184040 | 92 | 8 | 0.9 | 8.7 | 0.00 | 0.00 | 0.00 | 100 | 1018.5 |
| 20260506183729 | 92 | 212 | 7.0 | 8.7 | 0.00 | 0.00 | 0.00 | 100 | 1018.7 |
| 20260506183541 | 92 | 212 | 7.0 | 8.7 | 0.00 | 0.00 | 0.00 | 100 | 1018.7 |
| 20260506183200 | 93 | 286 | 1.7 | 5.2 | 0.00 | 0.00 | 0.00 | 100 | 1018.7 |
| 20260506183041 | 93 | 286 | 1.7 | 5.2 | 0.00 | 0.00 | 0.00 | 100 | 1018.7 |
| 20260506182916 | 92 | 278 | 1.7 | 5.2 | 0.00 | 0.00 | 0.00 | 100 | 1018.8 |
| 20260506182541 | 92 | 278 | 1.7 | 5.2 | 0.00 | 0.00 | 0.00 | 100 | 1018.8 |
| 20260506182519 | 92 | 164 | 0.0 | 6.1 | 0.00 | 0.00 | 0.00 | 100 | 1018.8 |
| 20260506182041 | 92 | 164 | 0.0 | 6.1 | 0.00 | 0.00 | 0.00 | 100 | 1018.8 |
| 20260506181908 | 92 | 210 | 8.7 | 8.7 | 0.00 | 0.00 | 0.00 | 100 | 1019.0 |
| 20260506181541 | 91 | 130 | 3.5 | 9.6 | 0.00 | 0.00 | 0.00 | 100 | 1018.9 |
| 20260506181041 | 92 | 210 | 8.7 | 8.7 | 0.00 | 0.00 | 0.00 | 100 | 1019.0 |
| 20260506181018 | 91 | 232 | 2.6 | 8.7 | 0.00 | 0.00 | 0.00 | 100 | 1019.0 |
| 20260506180541 | 90 | 147 | 1.7 | 9.6 | 0.00 | 0.00 | 0.00 | 100 | 1019.0 |
| 20260506180041 | 91 | 232 | 2.6 | 8.7 | 0.00 | 0.00 | 0.00 | 100 | 1019.0 |
| 20260506180017 | 91 | 151 | 1.7 | 7.8 | 0.00 | 0.00 | 0.00 | 100 | 1018.9 |
| 20260506175541 | 91 | 151 | 1.7 | 7.8 | 0.00 | 0.00 | 0.00 | 100 | 1018.9 |
| 20260506175041 | 92 | 184 | 3.5 | 13.0 | 0.00 | 0.00 | 0.00 | 100 | 1019.1 |
| 20260506174541 | 92 | 209 | 2.6 | 4.3 | 0.00 | 0.00 | 0.00 | 100 | 1019.0 |
| 20260506174041 | 91 | 78 | 0.0 | 6.1 | 0.00 | 0.00 | 0.00 | 100 | 1019.2 |
| 20260506173751 | 91 | 168 | 5.2 | 10.4 | 0.00 | 0.00 | 0.00 | 100 | 1019.2 |
| 20260506173541 | 91 | 168 | 5.2 | 10.4 | 0.00 | 0.00 | 0.00 | 100 | 1019.2 |
| 20260506173041 | 90 | 210 | 4.3 | 7.0 | 0.00 | 0.00 | 0.00 | 100 | 1019.1 |
| 20260506172642 | 89 | 201 | 6.1 | 9.6 | 0.00 | 0.00 | 0.00 | 100 | 1019.2 |
| 20260506172541 | 89 | 274 | 0.9 | 7.8 | 0.00 | 0.00 | 0.00 | 100 | 1019.1 |
| 20260506172041 | 89 | 201 | 6.1 | 9.6 | 0.00 | 0.00 | 0.00 | 100 | 1019.2 |
| 20260506171541 | 90 | 209 | 7.8 | 8.7 | 0.00 | 0.00 | 0.00 | 100 | 1019.2 |
| 20260506171157 | 90 | 227 | 3.5 | 6.1 | 0.00 | 0.00 | 0.00 | 100 | 1019.2 |
| 20260506171041 | 89 | 185 | 3.5 | 9.6 | 0.00 | 0.00 | 0.00 | 100 | 1019.2 |
| 20260506170541 | 90 | 227 | 3.5 | 6.1 | 0.00 | 0.00 | 0.00 | 100 | 1019.2 |
| 20260506170259 | 88 | 192 | 3.5 | 8.7 | 0.00 | 0.00 | 0.00 | 100 | 1019.4 |
| 20260506170041 | 89 | 195 | 4.3 | 7.8 | 0.00 | 0.00 | 0.00 | 100 | 1019.3 |
| 20260506165541 | 88 | 192 | 3.5 | 8.7 | 0.00 | 0.00 | 0.00 | 100 | 1019.4 |
| 20260506165041 | 89 | 215 | 2.6 | 7.0 | 0.00 | 0.00 | 0.00 | 100 | 1019.5 |
| 20260506164541 | 88 | 187 | 5.2 | 9.6 | 0.00 | 0.00 | 0.00 | 100 | 1019.5 |
| 20260506164200 | 88 | 156 | 6.1 | 7.8 | 0.00 | 0.00 | 0.00 | 100 | 1019.5 |
| 20260506164041 | 88 | 156 | 6.1 | 7.8 | 0.00 | 0.00 | 0.00 | 100 | 1019.5 |
| 20260506163541 | 89 | 236 | 4.3 | 8.7 | 0.00 | 0.00 | 0.00 | 100 | 1019.5 |
| 20260506163041 | 88 | 142 | 3.5 | 9.6 | 0.00 | 0.00 | 0.00 | 100 | 1019.6 |
| 20260506162541 | 89 | 178 | 8.7 | 10.4 | 0.00 | 0.00 | 0.00 | 100 | 1019.6 |
| 20260506162120 | 89 | 153 | 7.0 | 10.4 | 0.00 | 0.00 | 0.00 | 100 | 1019.5 |
| 20260506162041 | 89 | 153 | 7.0 | 10.4 | 0.00 | 0.00 | 0.00 | 100 | 1019.5 |
| 20260506161541 | 88 | 167 | 1.7 | 8.7 | 0.00 | 0.00 | 0.00 | 100 | 1019.6 |
| 20260506161112 | 87 | 199 | 1.7 | 8.7 | 0.00 | 0.00 | 0.00 | 100 | 1019.6 |
| 20260506161041 | 87 | 213 | 5.2 | 8.7 | 0.00 | 0.00 | 0.00 | 100 | 1019.6 |
| 20260506160541 | 87 | 118 | 6.1 | 9.6 | 0.00 | 0.00 | 0.00 | 100 | 1019.6 |
| 20260506160041 | 87 | 199 | 1.7 | 8.7 | 0.00 | 0.00 | 0.00 | 100 | 1019.6 |
| 20260506155941 | 88 | 177 | 6.1 | 7.8 | 0.00 | 0.00 | 0.00 | 100 | 1019.6 |
| 20260506155541 | 87 | 227 | 2.6 | 11.3 | 0.00 | 0.00 | 0.00 | 100 | 1019.7 |
| 20260506155041 | 88 | 177 | 6.1 | 7.8 | 0.00 | 0.00 | 0.00 | 100 | 1019.6 |
| 20260506154813 | 88 | 167 | 7.8 | 8.7 | 0.00 | 0.00 | 0.00 | 100 | 1019.6 |
| 20260506154541 | 87 | 219 | 4.3 | 8.7 | 0.00 | 0.00 | 0.00 | 100 | 1019.7 |
| 20260506154041 | 86 | 192 | 3.5 | 11.3 | 0.00 | 0.00 | 0.00 | 100 | 1019.7 |
| 20260506153541 | 88 | 167 | 7.8 | 8.7 | 0.00 | 0.00 | 0.00 | 100 | 1019.6 |
| 20260506153041 | 87 | 140 | 5.2 | 7.8 | 0.00 | 0.00 | 0.00 | 100 | 1019.6 |
| 20260506152541 | 85 | 154 | 2.6 | 8.7 | 0.00 | 0.00 | 0.00 | 100 | 1019.6 |
| 20260506152439 | 85 | 189 | 2.6 | 10.4 | 0.00 | 0.00 | 0.00 | 100 | 1019.6 |
| 20260506152041 | 85 | 189 | 2.6 | 10.4 | 0.00 | 0.00 | 0.00 | 100 | 1019.6 |
| 20260506151541 | 85 | 178 | 5.2 | 10.4 | 0.00 | 0.00 | 0.00 | 100 | 1019.7 |
| 20260506151147 | 85 | 210 | 7.0 | 7.8 | 0.00 | 0.00 | 0.00 | 100 | 1019.7 |
| 20260506151041 | 85 | 210 | 7.0 | 7.8 | 0.00 | 0.00 | 0.00 | 100 | 1019.7 |
| 20260506150541 | 85 | 108 | 2.6 | 9.6 | 0.00 | 0.00 | 0.00 | 100 | 1019.6 |
| 20260506150041 | 85 | 170 | 4.3 | 8.7 | 0.00 | 0.00 | 0.00 | 100 | 1019.6 |
| 20260506145541 | 84 | 251 | 3.5 | 7.8 | 0.00 | 0.00 | 0.00 | 100 | 1019.6 |
| 20260506145041 | 83 | 175 | 6.1 | 10.4 | 0.00 | 0.00 | 0.00 | 100 | 1019.6 |
| 20260506144541 | 83 | 151 | 2.6 | 7.8 | 0.00 | 0.00 | 0.00 | 100 | 1019.5 |
| 20260506144041 | 84 | 160 | 5.2 | 7.8 | 0.00 | 0.00 | 0.00 | 100 | 1019.5 |
| 20260506143629 | 83 | 181 | 7.0 | 9.6 | 0.00 | 0.00 | 0.00 | 100 | 1019.5 |
| 20260506143542 | 83 | 181 | 7.0 | 9.6 | 0.00 | 0.00 | 0.00 | 100 | 1019.5 |
| 20260506143042 | 83 | 206 | 5.2 | 8.7 | 0.00 | 0.00 | 0.00 | 100 | 1019.5 |
| 20260506142542 | 83 | 189 | 5.2 | 8.7 | 0.00 | 0.00 | 0.00 | 100 | 1019.5 |
| 20260506142120 | 82 | 188 | 2.6 | 7.0 | 0.00 | 0.00 | 0.00 | 100 | 1019.5 |
| 20260506142042 | 82 | 188 | 2.6 | 7.0 | 0.00 | 0.00 | 0.00 | 100 | 1019.5 |
| 20260506141542 | 82 | 194 | 1.7 | 9.6 | 0.00 | 0.00 | 0.00 | 100 | 1019.5 |
| 20260506141329 | 81 | 182 | 7.8 | 7.8 | 0.00 | 0.00 | 0.00 | 100 | 1019.6 |
| 20260506141042 | 81 | 182 | 7.8 | 7.8 | 0.00 | 0.00 | 0.00 | 100 | 1019.6 |
| 20260506140542 | 82 | 157 | 3.5 | 7.8 | 0.00 | 0.00 | 0.00 | 100 | 1019.6 |
| 20260506140042 | 81 | 191 | 5.2 | 8.7 | 0.00 | 0.00 | 0.00 | 100 | 1019.6 |
| 20260506135542 | 81 | 171 | 4.3 | 8.7 | 0.00 | 0.00 | 0.00 | 100 | 1019.5 |
| 20260506135042 | 80 | 194 | 6.1 | 8.7 | 0.00 | 0.00 | 0.00 | 100 | 1019.6 |
| 20260506134542 | 79 | 174 | 4.3 | 9.6 | 0.00 | 0.00 | 0.00 | 100 | 1019.5 |
| 20260506134216 | 79 | 161 | 4.3 | 9.6 | 0.00 | 0.00 | 0.00 | 100 | 1019.5 |
| 20260506134042 | 79 | 161 | 4.3 | 9.6 | 0.00 | 0.00 | 0.00 | 100 | 1019.5 |
| 20260506133956 | 78 | 165 | 8.7 | 9.6 | 0.00 | 0.00 | 0.00 | 100 | 1019.4 |
| 20260506133542 | 78 | 184 | 5.2 | 10.4 | 0.00 | 0.00 | 0.00 | 100 | 1019.4 |
| 20260506133042 | 78 | 165 | 8.7 | 9.6 | 0.00 | 0.00 | 0.00 | 100 | 1019.4 |
| 20260506132700 | 79 | 91 | 6.1 | 8.7 | 0.00 | 0.00 | 0.00 | 100 | 1019.4 |
| 20260506132542 | 79 | 91 | 6.1 | 8.7 | 0.00 | 0.00 | 0.00 | 100 | 1019.4 |
| 20260506132127 | 78 | 115 | 4.3 | 10.4 | 0.00 | 0.00 | 0.00 | 100 | 1019.4 |
| 20260506132042 | 78 | 115 | 4.3 | 10.4 | 0.00 | 0.00 | 0.00 | 100 | 1019.4 |
| 20260506131713 | 78 | 150 | 4.3 | 7.8 | 0.00 | 0.00 | 0.00 | 100 | 1019.3 |
| 20260506131614 | 78 | 150 | 4.3 | 7.8 | 0.00 | 0.00 | 0.00 | 100 | 1019.3 |
| 20260506131542 | 78 | 150 | 4.3 | 7.8 | 0.00 | 0.00 | 0.00 | 100 | 1019.3 |
| 20260506131214 | 77 | 130 | 3.5 | 8.7 | 0.00 | 0.00 | 0.00 | 100 | 1019.4 |
| 20260506131121 | 77 | 130 | 3.5 | 8.7 | 0.00 | 0.00 | 0.00 | 100 | 1019.4 |
| 20260506131042 | 77 | 130 | 3.5 | 8.7 | 0.00 | 0.00 | 0.00 | 100 | 1019.4 |
| 20260506130708 | 77 | 156 | 6.1 | 8.7 | 0.00 | 0.00 | 0.00 | 100 | 1019.3 |
| 20260506130542 | 77 | 156 | 6.1 | 8.7 | 0.00 | 0.00 | 0.00 | 100 | 1019.3 |
| 20260506130042 | 78 | 182 | 2.6 | 6.1 | 0.00 | 0.00 | 0.00 | 100 | 1019.3 |
| 20260506125542 | 77 | 188 | 1.7 | 6.1 | 0.00 | 0.00 | 0.00 | 100 | 1019.2 |
| 20260506125223 | 76 | 132 | 4.3 | 6.1 | 0.00 | 0.00 | 0.00 | 100 | 1019.2 |
| 20260506125042 | 76 | 132 | 4.3 | 6.1 | 0.00 | 0.00 | 0.00 | 100 | 1019.2 |
| 20260506124923 | 73 | 156 | 2.6 | 4.3 | 0.00 | 0.00 | 0.00 | 100 | 1019.1 |
| 20260506124542 | 75 | 132 | 3.5 | 6.1 | 0.00 | 0.00 | 0.00 | 100 | 1019.1 |
| 20260506124133 | 74 | 147 | 6.1 | 6.1 | 0.00 | 0.00 | 0.00 | 100 | 1019.1 |
| 20260506124042 | 74 | 147 | 6.1 | 6.1 | 0.00 | 0.00 | 0.00 | 100 | 1019.1 |
| 20260506123619 | 73 | 125 | 1.7 | 6.1 | 0.00 | 0.00 | 0.00 | 100 | 1019.1 |
| 20260506123542 | 73 | 125 | 1.7 | 6.1 | 0.00 | 0.00 | 0.00 | 100 | 1019.1 |
| 20260506123131 | 73 | 156 | 2.6 | 4.3 | 0.00 | 0.00 | 0.00 | 100 | 1019.1 |
| 20260506123042 | 73 | 156 | 2.6 | 4.3 | 0.00 | 0.00 | 0.00 | 100 | 1019.1 |
| 20260506122642 | 71 | 150 | 1.7 | 4.3 | 0.00 | 0.00 | 0.00 | 100 | 1019.1 |
| 20260506122542 | 71 | 150 | 1.7 | 4.3 | 0.00 | 0.00 | 0.00 | 100 | 1019.1 |
| 20260506122515 | 69 | 77 | 0.0 | 0.0 | 0.00 | 0.00 | 0.00 | 100 | 1018.9 |
| 20260506122042 | 71 | 142 | 0.9 | 4.3 | 0.00 | 0.00 | 0.00 | 100 | 1019.0 |
| 20260506121542 | 70 | 77 | 0.0 | 0.0 | 0.00 | 0.00 | 0.00 | 100 | 1019.0 |
| 20260506121042 | 70 | 77 | 0.0 | 0.0 | 0.00 | 0.00 | 0.00 | 100 | 1018.9 |
| 20260506120626 | 69 | 77 | 0.0 | 0.0 | 0.00 | 0.00 | 0.00 | 100 | 1018.9 |
| 20260506120542 | 69 | 77 | 0.0 | 0.0 | 0.00 | 0.00 | 0.00 | 100 | 1018.9 |
| 20260506120131 | 69 | 77 | 0.0 | 0.0 | 0.00 | 0.00 | 0.00 | 100 | 1018.9 |
| 20260506120042 | 69 | 77 | 0.0 | 0.0 | 0.00 | 0.00 | 0.00 | 100 | 1018.9 |
| 20260506115542 | 69 | 77 | 0.0 | 0.0 | 0.00 | 0.00 | 0.00 | 100 | 1018.9 |
| 20260506115042 | 68 | 77 | 0.0 | 0.0 | 0.00 | 0.00 | 0.00 | 100 | 1018.8 |
| 20260506114746 | 68 | 77 | 0.0 | 0.0 | 0.00 | 0.00 | 0.00 | 100 | 1018.7 |
| 20260506114710 | 68 | 77 | 0.0 | 0.0 | 0.00 | 0.00 | 0.00 | 100 | 1018.7 |
| 20260506114542 | 68 | 77 | 0.0 | 0.0 | 0.00 | 0.00 | 0.00 | 100 | 1018.7 |
| 20260506114042 | 66 | 77 | 0.0 | 0.0 | 0.00 | 0.00 | 0.00 | 100 | 1018.7 |
| 20260506113542 | 65 | 77 | 0.0 | 0.0 | 0.00 | 0.00 | 0.00 | 100 | 1018.8 |
| 20260506113042 | 64 | 77 | 0.0 | 0.0 | 0.00 | 0.00 | 0.00 | 100 | 1018.7 |
| 20260506112542 | 64 | 77 | 0.0 | 0.0 | 0.00 | 0.00 | 0.00 | 100 | 1018.6 |
| 20260506112042 | 63 | 77 | 0.0 | 0.0 | 0.00 | 0.00 | 0.00 | 100 | 1018.5 |
| 20260506111847 | 63 | 77 | 0.0 | 0.0 | 0.00 | 0.00 | 0.00 | 100 | 1018.5 |
| 20260506111648 | 63 | 77 | 0.0 | 0.0 | 0.00 | 0.00 | 0.00 | 100 | 1018.5 |
| 20260506111542 | 63 | 77 | 0.0 | 0.0 | 0.00 | 0.00 | 0.00 | 100 | 1018.5 |
| 20260506111405 | 62 | 77 | 0.0 | 0.0 | 0.00 | 0.00 | 0.00 | 100 | 1018.1 |
| 20260506111042 | 63 | 77 | 0.0 | 0.0 | 0.00 | 0.00 | 0.00 | 100 | 1018.4 |
| 20260506110542 | 63 | 77 | 0.0 | 0.0 | 0.00 | 0.00 | 0.00 | 100 | 1018.3 |
| 20260506110042 | 62 | 77 | 0.0 | 0.0 | 0.00 | 0.00 | 0.00 | 100 | 1018.2 |
| 20260506105542 | 62 | 77 | 0.0 | 0.0 | 0.00 | 0.00 | 0.00 | 100 | 1018.2 |
| 20260506105042 | 62 | 77 | 0.0 | 0.0 | 0.00 | 0.00 | 0.00 | 100 | 1018.2 |
| 20260506104542 | 62 | 77 | 0.0 | 0.0 | 0.00 | 0.00 | 0.00 | 100 | 1018.1 |
| 20260506104358 | 62 | 77 | 0.0 | 0.0 | 0.00 | 0.00 | 0.00 | 100 | 1017.8 |
| 20260506104042 | 63 | 77 | 0.0 | 0.0 | 0.00 | 0.00 | 0.00 | 100 | 1018.1 |
| 20260506103543 | 63 | 77 | 0.0 | 0.0 | 0.00 | 0.00 | 0.00 | 100 | 1018.0 |
| 20260506103043 | 62 | 77 | 0.0 | 0.0 | 0.00 | 0.00 | 0.00 | 100 | 1017.8 |
| 20260506102543 | 62 | 77 | 0.0 | 0.0 | 0.00 | 0.00 | 0.00 | 100 | 1018.0 |
| 20260506102043 | 62 | 77 | 0.0 | 0.0 | 0.00 | 0.00 | 0.00 | 100 | 1018.0 |
| 20260506101543 | 62 | 77 | 0.0 | 0.0 | 0.00 | 0.00 | 0.00 | 100 | 1017.9 |
| 20260506101043 | 62 | 77 | 0.0 | 0.0 | 0.00 | 0.00 | 0.00 | 100 | 1017.9 |
| 20260506100543 | 62 | 77 | 0.0 | 0.0 | 0.00 | 0.00 | 0.00 | 100 | 1017.9 |
| 20260506100043 | 62 | 77 | 0.0 | 0.0 | 0.00 | 0.00 | 0.00 | 100 | 1017.8 |
| 20260506095543 | 62 | 77 | 0.0 | 0.0 | 0.00 | 0.00 | 0.00 | 100 | 1017.9 |
| 20260506095043 | 62 | 77 | 0.0 | 0.0 | 0.00 | 0.00 | 0.00 | 100 | 1017.9 |
| 20260506094543 | 62 | 77 | 0.0 | 0.0 | 0.00 | 0.00 | 0.00 | 100 | 1018.0 |
| 20260506094043 | 62 | 77 | 0.0 | 0.0 | 0.00 | 0.00 | 0.00 | 100 | 1017.8 |
| 20260506093759 | 62 | 77 | 0.0 | 0.0 | 0.00 | 0.00 | 0.00 | 100 | 1017.8 |
| 20260506093543 | 62 | 77 | 0.0 | 0.0 | 0.00 | 0.00 | 0.00 | 100 | 1017.8 |
| 20260506093043 | 62 | 77 | 0.0 | 0.0 | 0.00 | 0.00 | 0.00 | 100 | 1017.9 |